| time (UTC) | temp C | wind direction | speed KPH | gust KPH | rain 1hr cm | rain 24hr cm | rain mn cm | humidity % | barometer mb |
| 20260505055305 | 17 | 352 | 8.0 | 14.5 | 0.00 | 0.08 | 0.00 | 50 | 1002.7 |
| 20260505054304 | 17 | 36 | 1.6 | 20.9 | 0.00 | 0.08 | 0.00 | 49 | 1002.4 |
| 20260505053304 | 17 | 15 | 11.3 | 22.5 | 0.00 | 0.13 | 0.00 | 49 | 1001.7 |
| 20260505052304 | 17 | 21 | 4.8 | 11.3 | 0.00 | 0.15 | 0.00 | 53 | 1001.7 |
| 20260505051302 | 17 | 30 | 6.4 | 14.5 | 0.00 | 0.15 | 0.00 | 52 | 1001.4 |
| 20260505050301 | 18 | 22 | 8.0 | 12.9 | 0.00 | 0.15 | 0.00 | 51 | 1001.4 |
| 20260505041227 | 19 | 38 | 6.4 | 16.1 | 0.03 | 0.15 | 0.15 | 52 | 1001.0 |
| 20260505040155 | 20 | 34 | 9.7 | 19.3 | 0.03 | 0.15 | 0.15 | 53 | 1000.7 |
| 20260505035154 | 20 | 22 | 4.8 | 11.3 | 0.03 | 0.15 | 0.15 | 59 | 1000.7 |
| 20260505034154 | 20 | 20 | 0.0 | 17.7 | 0.03 | 0.15 | 0.15 | 60 | 1000.3 |
| 20260505033153 | 21 | 25 | 6.4 | 17.7 | 0.03 | 0.15 | 0.15 | 60 | 999.7 |
| 20260505032122 | 21 | 1 | 9.7 | 16.1 | 0.03 | 0.15 | 0.15 | 58 | 999.7 |
| 20260505031121 | 22 | 12 | 4.8 | 19.3 | 0.00 | 0.13 | 0.13 | 57 | 999.7 |
| 20260505030120 | 22 | 323 | 6.4 | 19.3 | 0.00 | 0.13 | 0.13 | 66 | 999.3 |
| 20260505025119 | 23 | 240 | 14.5 | 24.1 | 0.00 | 0.13 | 0.13 | 66 | 998.0 |
| 20260505024119 | 23 | 236 | 3.2 | 9.7 | 0.00 | 0.13 | 0.13 | 66 | 998.0 |
| 20260505023016 | 23 | 232 | 3.2 | 6.4 | 0.00 | 0.13 | 0.13 | 62 | 998.0 |
| 20260505022015 | 23 | 231 | 1.6 | 9.7 | 0.00 | 0.13 | 0.13 | 61 | 997.6 |
| 20260505021014 | 23 | 241 | 3.2 | 8.0 | 0.00 | 0.13 | 0.13 | 60 | 997.6 |
| 20260505015943 | 24 | 248 | 4.8 | 8.0 | 0.00 | 0.13 | 0.13 | 58 | 997.6 |
| 20260505014942 | 24 | 248 | 0.0 | 0.0 | 0.00 | 0.13 | 0.13 | 58 | 997.3 |
| 20260505013942 | 24 | 248 | 0.0 | 4.8 | 0.00 | 0.13 | 0.13 | 57 | 997.3 |
| 20260505012941 | 25 | 248 | 1.6 | 8.0 | 0.00 | 0.13 | 0.13 | 57 | 997.3 |
| 20260505011940 | 25 | 253 | 4.8 | 8.0 | 0.00 | 0.13 | 0.13 | 56 | 997.0 |
| 20260505010939 | 25 | 254 | 1.6 | 8.0 | 0.00 | 0.13 | 0.13 | 55 | 997.0 |
| 20260505005938 | 25 | 254 | 0.0 | 6.4 | 0.00 | 0.13 | 0.13 | 54 | 997.0 |
| 20260505004938 | 25 | 254 | 3.2 | 9.7 | 0.00 | 0.13 | 0.13 | 53 | 997.0 |
| 20260505003906 | 26 | 236 | 4.8 | 14.5 | 0.00 | 0.13 | 0.13 | 53 | 996.6 |
| 20260505002804 | 26 | 281 | 4.8 | 16.1 | 0.00 | 0.13 | 0.13 | 52 | 996.6 |
| 20260505001803 | 26 | 234 | 4.8 | 14.5 | 0.00 | 0.13 | 0.13 | 51 | 996.6 |
| 20260505000731 | 26 | 233 | 11.3 | 19.3 | 0.00 | 0.13 | 0.13 | 50 | 996.6 |
| 20260504235731 | 26 | 237 | 8.0 | 22.5 | 0.00 | 0.13 | 0.13 | 49 | 996.6 |
| 20260504234730 | 27 | 270 | 11.3 | 24.1 | 0.00 | 0.13 | 0.13 | 49 | 997.0 |
| 20260504233730 | 27 | 236 | 16.1 | 22.5 | 0.00 | 0.13 | 0.13 | 48 | 997.0 |
| 20260504232729 | 27 | 233 | 12.9 | 22.5 | 0.00 | 0.13 | 0.13 | 49 | 997.0 |
| 20260504231729 | 27 | 245 | 8.0 | 24.1 | 0.00 | 0.13 | 0.13 | 49 | 997.3 |
| 20260504230728 | 27 | 238 | 9.7 | 20.9 | 0.00 | 0.13 | 0.13 | 49 | 997.3 |
| 20260504225727 | 27 | 240 | 9.7 | 24.1 | 0.00 | 0.13 | 0.13 | 48 | 997.3 |
| 20260504224726 | 27 | 261 | 12.9 | 19.3 | 0.00 | 0.13 | 0.13 | 48 | 997.6 |
| 20260504223726 | 27 | 229 | 8.0 | 22.5 | 0.00 | 0.13 | 0.13 | 47 | 997.6 |
| 20260504222725 | 27 | 247 | 6.4 | 16.1 | 0.00 | 0.13 | 0.13 | 48 | 997.6 |
| 20260504221724 | 27 | 217 | 6.4 | 17.7 | 0.00 | 0.13 | 0.13 | 47 | 997.6 |
| 20260504220652 | 27 | 248 | 12.9 | 22.5 | 0.00 | 0.13 | 0.13 | 47 | 997.6 |
| 20260504215652 | 27 | 242 | 14.5 | 25.7 | 0.00 | 0.13 | 0.13 | 47 | 997.6 |
| 20260504214651 | 27 | 229 | 8.0 | 17.7 | 0.00 | 0.13 | 0.13 | 46 | 997.6 |
| 20260504213651 | 27 | 234 | 6.4 | 17.7 | 0.00 | 0.13 | 0.13 | 46 | 997.6 |
| 20260504212650 | 27 | 244 | 6.4 | 17.7 | 0.00 | 0.13 | 0.13 | 47 | 997.6 |
| 20260504211618 | 27 | 262 | 11.3 | 24.1 | 0.00 | 0.13 | 0.13 | 46 | 998.0 |
| 20260504210618 | 27 | 218 | 6.4 | 24.1 | 0.00 | 0.13 | 0.13 | 47 | 998.0 |
| 20260504205617 | 27 | 249 | 14.5 | 19.3 | 0.00 | 0.13 | 0.13 | 47 | 998.0 |
| 20260504204616 | 27 | 219 | 8.0 | 22.5 | 0.00 | 0.13 | 0.13 | 47 | 998.0 |
| 20260504203616 | 27 | 229 | 8.0 | 20.9 | 0.00 | 0.13 | 0.13 | 47 | 998.0 |
| 20260504202544 | 27 | 240 | 9.7 | 22.5 | 0.00 | 0.13 | 0.13 | 48 | 998.3 |
| 20260504201543 | 27 | 229 | 6.4 | 22.5 | 0.00 | 0.13 | 0.13 | 48 | 998.3 |
| 20260504200543 | 26 | 224 | 9.7 | 29.0 | 0.00 | 0.13 | 0.13 | 49 | 998.6 |
| 20260504195542 | 26 | 240 | 11.3 | 25.7 | 0.00 | 0.13 | 0.13 | 48 | 998.6 |
| 20260504194542 | 26 | 241 | 14.5 | 35.4 | 0.00 | 0.13 | 0.13 | 49 | 998.6 |
| 20260504193541 | 26 | 232 | 12.9 | 30.6 | 0.00 | 0.13 | 0.13 | 49 | 998.6 |
| 20260504192540 | 26 | 227 | 11.3 | 19.3 | 0.00 | 0.13 | 0.13 | 48 | 999.0 |
| 20260504191540 | 26 | 213 | 9.7 | 22.5 | 0.00 | 0.13 | 0.13 | 49 | 999.0 |
| 20260504190539 | 26 | 233 | 8.0 | 25.7 | 0.00 | 0.13 | 0.13 | 50 | 999.0 |
| 20260504185507 | 26 | 247 | 12.9 | 22.5 | 0.00 | 0.13 | 0.13 | 49 | 999.0 |
| 20260504184507 | 26 | 242 | 12.9 | 22.5 | 0.00 | 0.13 | 0.13 | 49 | 998.6 |
| 20260504183506 | 26 | 182 | 8.0 | 24.1 | 0.00 | 0.13 | 0.13 | 50 | 998.6 |
| 20260504182505 | 25 | 197 | 9.7 | 20.9 | 0.00 | 0.13 | 0.13 | 49 | 998.6 |
| 20260504181505 | 25 | 243 | 8.0 | 30.6 | 0.00 | 0.13 | 0.13 | 51 | 999.0 |
| 20260504180433 | 25 | 232 | 14.5 | 33.8 | 0.00 | 0.13 | 0.13 | 49 | 999.0 |
| 20260504175432 | 25 | 234 | 9.7 | 19.3 | 0.00 | 0.13 | 0.13 | 50 | 999.0 |
| 20260504174431 | 25 | 207 | 9.7 | 20.9 | 0.00 | 0.13 | 0.13 | 51 | 999.3 |
| 20260504173431 | 25 | 218 | 9.7 | 20.9 | 0.00 | 0.13 | 0.13 | 52 | 999.3 |
| 20260504172430 | 25 | 231 | 17.7 | 30.6 | 0.00 | 0.13 | 0.13 | 50 | 999.3 |
| 20260504171430 | 25 | 224 | 8.0 | 22.5 | 0.00 | 0.13 | 0.13 | 52 | 999.7 |
| 20260504170429 | 25 | 226 | 9.7 | 16.1 | 0.00 | 0.13 | 0.13 | 52 | 999.7 |
| 20260504160322 | 23 | 233 | 14.5 | 25.7 | 0.00 | 0.13 | 0.13 | 54 | 1000.3 |
| 20260504150318 | 22 | 235 | 9.7 | 22.5 | 0.00 | 0.13 | 0.13 | 60 | 1000.7 |
| 20260504141213 | 20 | 234 | 8.0 | 14.5 | 0.00 | 0.13 | 0.13 | 67 | 1001.0 |
| 20260504140213 | 19 | 234 | 8.0 | 16.1 | 0.00 | 0.13 | 0.13 | 69 | 1001.0 |
| 20260504130208 | 17 | 223 | 6.4 | 9.7 | 0.00 | 0.13 | 0.13 | 75 | 1001.4 |
| 20260504120204 | 17 | 331 | 0.0 | 8.0 | 0.00 | 0.13 | 0.13 | 70 | 1001.4 |
| 20260504081843 | 13 | 197 | 0.0 | 0.0 | 0.03 | 0.13 | 0.13 | 89 | 1003.4 |
| 20260504080843 | 13 | 197 | 0.0 | 0.0 | 0.05 | 0.13 | 0.13 | 89 | 1003.7 |